Other Public Products
Issued by NWS Grand Forks, ND

Home | Current Version | Previous Version | Text Only | Print | Product List | Glossary Off
Versions: 1 2 3 4 5 6 7 8 9 10 11 12 13 14 15 16 17 18 19 20 21 22 23 24 25 26 27 28 29 30 31 32 33 34 35 36 37 38 39 40 41 42 43 44 45 46 47 48 49 50

000
FPUS83 KFGF 052131
OPUFGF
PRAIRIE TO PINES WEATHER ROUNDUP
NATIONAL WEATHER SERVICE EASTERN NORTH DAKOTA/GRAND FORKS ND
300 PM CST THU MAR 05 2015

 **SATELLITE DATA USED TO AUGMENT SKY COVER AT AUTOMATED STATIONS**
 *****  WEATHER ACROSS EASTERN NORTH DAKOTA  *****

CITY           SKY/WX    TMP DP  RH WIND       PRES   REMARKS
GRAND FORKS    SUNNY     22  10  60 S24G30    30.16F WCI   5
GRAND FORKS AF SUNNY     27   8  44 SW18      30.13F WCI  13
GRAND CITY NWS   N/A     16 N/A N/A S24         N/A  WCI  -3
BUXTON           N/A     22  11  62 S17         N/A  WCI   8
DEVILS LAKE    SUNNY     25  12  58 SW14      30.06F WCI  13
FARGO          SUNNY     22   6  50 S23       30.24F WCI   6
WAHPETON ARPT  CLEAR     19   5  53 S16       30.27F WCI   5
$$

 *****  WEATHER ACROSS CENTRAL AND WESTERN NORTH DAKOTA  *****

CITY           SKY/WX    TMP DP  RH WIND       PRES   REMARKS
JAMESTOWN      SUNNY     26  11  52 S20       30.11F WCI  12
BISMARCK       SUNNY     38   9  30 S12G17    30.05F
MINOT          SUNNY     25  10  53 SW14      30.01F WCI  13
MINOT AFB      SUNNY     24  14  64 SW10      30.01F WCI  14
GARRISON         N/A     29  14  53 W10       30.03F WCI  20
WILLISTON      SUNNY     35  13  40 W12       30.02F
DICKINSON      SUNNY     42  10  27 NW20G29   30.00S
HETTINGER      SUNNY     44  11  26 NW25G32   30.03S
$$

 *****  OTHER OBSERVATIONS NORTHEAST NORTH DAKOTA  *****

CITY           SKY/WX    TMP DP  RH WIND       PRES   REMARKS
WALHALLA         N/A     23   9  54 S15       30.07F WCI  10
LANGDON        NOT AVBL
CAVALIER       FAIR      25   9  50 SW16G23   30.09F WCI  12
GRAFTON        NOT AVBL
CANDO          FAIR      25  12  58 SW16      30.03F WCI  12
FORT TOTTEN      N/A     27  10  49 S13       29.95S WCI  16
ROLLA          FAIR      16   7  67 SW18G24   29.98F WCI  -1
RUGBY          FAIR      23  14  68 SW12      30.03F WCI  12
 ***** THE ABOVE OBSERVATIONS ARE NON NWS ARE NOT QUALITY
        CONTROLLED AND MAY MIS-REPORT RAIN FOR SNOW...
$$

 *****  OTHER OBSERVATIONS SOUTHEAST NORTH DAKOTA *****

CITY           SKY/WX    TMP DP  RH WIND       PRES   REMARKS
COOPERSTOWN    NOT AVBL
VALLEY CITY    FLURRIES  23  10  58 SW18G29   30.14F WCI   9
OAKES            N/A     23   9  54 S21G29    30.18F WCI   8
GWINNER        CLEAR     25   9  50 SW22G30   30.21F WCI  10
SHEYENNE NWR     N/A     25   5  42 SW15      29.95S WCI  13
BUFFALO        NOT AVBL
WYNDMERE       NOT AVBL
 ***** THE ABOVE OBSERVATIONS ARE NON NWS ARE NOT QUALITY
       CONTROLLED AND MAY MIS-REPORT RAIN FOR SNOW...
$$

  *****  WEATHER ACROSS NORTHERN MINNESOTA  *****

CITY           SKY/WX    TMP DP  RH WIND       PRES   REMARKS
FLAG ISLAND    SUNNY     10   0  61 S13       30.11F WCI  -5
WARROAD        SUNNY     16   1  53 SW14G20   30.14F WCI   1
ROSEAU         SUNNY     16   5  62 S15       30.13F WCI   1
HALLOCK        SUNNY     19  10  68 S23       30.12F WCI   2
THF RVR FALLS  SUNNY     16   9  73 S21       30.17F WCI  -2
HALSTAD          N/A     22   3  43 S22         N/A  WCI   7
FOSSTON        SUNNY     18   3  53 S21       30.20F WCI   1
BAUDETTE       SUNNY     17  -3  41 S10       30.15F WCI   5
WASKISH        SUNNY     19  -2  38 SW15      30.19F WCI   5
CROOKSTON      SUNNY     23  10  58 S25G32    30.20F WCI   7
$$
  *****  WEATHER ACROSS CENTRAL AND WEST MINNESOTA  *****

CITY           SKY/WX    TMP DP  RH WIND       PRES   REMARKS
BEMIDJI        SUNNY     16  -3  42 S13       30.20F WCI   3
PARK RAPIDS    SUNNY     14  -3  47 S13       30.24F WCI   0
WADENA         SUNNY     12  -2  52 SW13      30.28F WCI  -3
DETROIT LAKES  SUNNY     18   1  49 S15       30.24F WCI   3
MOORHEAD       SUNNY     21   5  49 S15G22    30.25F WCI   8
FERGUS FALLS   SUNNY     16   3  57 S17       30.32F WCI   0
ELBOW LAKE     FAIR      15   5  64 S17       30.29F WCI  -1
MORRIS MN      SUNNY     19   7  58 S14       30.30F WCI   6
STAPLES        SUNNY     10  -4  52 S10       30.30F WCI  -3
WHEATON        SUNNY     18   7  62 S13       30.30F WCI   4
$$
  *****  WEATHER ELSEWHERE ACROSS MINNESOTA  *****

CITY           SKY/WX    TMP DP  RH WIND       PRES   REMARKS
DULUTH         SUNNY     13  -8  39 W17       30.26F WCI  -4
INTRNTL FALLS  SUNNY     16  -8  34 SW9       30.18F WCI   4
ELY            SUNNY     12 -11  34 SW12G17   30.21F WCI  -2
CLOQUET        SUNNY     12 -11  34 SW13      30.28F WCI  -3
BRAINERD       SUNNY     11  -5  48 SW12      30.32F WCI  -3
HIBBING        SUNNY     13 -10  35 W10G17    30.25F WCI   0
ALEXANDRIA     SUNNY     13   0  56 S14       30.30F WCI  -2
SAINT CLOUD    SUNNY     13  -1  54 S12       30.38F WCI  -1
MINNEAPOLIS    SUNNY     13  -3  49 VRB5      30.44F WCI   5
$$

  *****  WEATHER ACROSS SOUTH DAKOTA  *****

CITY           SKY/WX    TMP DP  RH WIND       PRES   REMARKS
SIOUX FALLS    SUNNY     26   6  42 S15       30.30F WCI  14
BROOKINGS      NOT AVBL
WATERTOWN      SUNNY     20   8  60 S14       30.23F WCI   7
HURON          SUNNY     30  11  45 S14G22    30.23F WCI  19
SISSETON         N/A     21   8  57 SW16      30.26F WCI   7
ABERDEEN       SUNNY     23  11  60 S20       30.22F WCI   8
MITCHELL       SUNNY     34   5  29 S17       30.26F WCI  23
PIERRE         SUNNY     31  15  52 S16       30.14F WCI  20
MOBRIDGE       SUNNY     36   8  31 S15       30.08F
RAPID CITY     MOSUNNY   45  14  28 VRB6      30.08F
$$

  *****  SOME WEATHER IN NEARBY STATES *****

CITY           SKY/WX    TMP DP  RH WIND       PRES   REMARKS
GLASGOW MT     SUNNY     47  14  26 W14       30.03F
GREAT FALLS MT FAIR      51   8  17 W25G32    30.09S
CHEYENNE WY    PTSUNNY   39  15  37 W17G26    30.15F
SCOTTSBLUFF NE MOSUNNY   46  13  26 W15G23    30.18F
OMAHA NE       MOSUNNY   28   4  35 S10       30.44F WCI  19
DES MOINES IA  SUNNY     20  -2  38 CALM      30.50F
DAVENPORT IA   SUNNY     10  -2  58 NW8       30.53F WCI  -2
CHICAGO IL     SUNNY     15  -2  46 NW13      30.47S WCI   1
EAU CLAIRE WI  SUNNY      9  -8  46 SW9       30.44F WCI  -4
LA CROSSE WI   MIX PCPN  16  -2  45 NW10      30.48F WCI   4
$$

  *****  SOME NATIONAL WEATHER *****

CITY           SKY/WX    TMP DP  RH WIND       PRES   REMARKS
LA GUARDIA NY  SNOW      21  18  86 NW12      30.18S VSB 1/2 WCI   9
RALEIGH NC     LGT RAIN  37  34  87 NE13      30.05S FOG
ATLANTA GA     CLOUDY    41  36  81 NW23G39   30.11R
NEW ORLEANS LA CLOUDY    39  31  72 N23G31    30.28S
OKLAHOMA CITY  SUNNY     41  15  35 VRB5      30.50F
ALBUQUERQUE NM SUNNY     45  13  27 VRB3      30.34F
SALT LAKE CITY FAIR      47  20  34 SW6       30.41F
LOS ANGELES CA FAIR      71  21  15 W9        30.22F
BOISE ID       FAIR      52  15  23 CALM      30.37F
SEATTLE WA     PTSUNNY   54  30  40 W6        30.37F
$$

*** WEATHER ACROSS MANITOBA...SASKATCHEWAN AND ONTARIO ***
                ***ONTARIO***

CITY           SKY/WX    TMP DP  RH WIND       PRES   REMARKS
GERALDTON      SUNNY      9 -11  40 SW14G21   30.12F WCI  -8
THUNDER BAY    SUNNY     14 -11  31 W17G23    30.24F WCI  -3
SIOUX LOOKOUT  MOSUNNY   10  -9  40 SW13G21   30.09F WCI  -5
TORONTO        MOSUNNY   14  -4  44 NW12      30.33R WCI   0
BIG TROUT LK   SUNNY      9  -8  47 W10G20    29.88F WCI  -6
PICKLE LAKE    PTSUNNY   12 -13  31 SW15G23   29.97F WCI  -4
DRYDEN         SUNNY     10  -8  44 SW14G22   30.10F WCI  -5
KENORA         MOSUNNY    9  -6  52 S16G23    30.09F WCI  -9
$$
                *** MANITOBA***

CITY           SKY/WX    TMP DP  RH WIND       PRES   REMARKS
BRANDON        MOSUNNY   14   5  67 SW13      29.98F WCI   0
DAUPHIN        PTSUNNY   27   5  39 W22G28    29.85F WCI  12
ISLAND LAKE    CLOUDY    10  -8  44 SW13      29.82F WCI  -5
PILOT MOUND      N/A     16   9  73 S18         N/A  WCI  -1
THE PAS        CLOUDY    16   1  53 NW13G18   29.75S WCI   2
THOMPSON       PTSUNNY   12  -4  48 SW12G18   29.66F WCI  -2
WINNIPEG       MOSUNNY   12   3  67 S24G31    30.08F WCI  -8
LYNN LAKE      MOSUNNY   14   1  57 W13G18    29.61S WCI   0
CHURCHILL      CRYSTALS   0 -11  60 S14       29.61F WCI -19
GILLAM         CLOUDY     9  -9  43 SW15G22   29.69F WCI  -8
$$
                ***SASKATCHEWAN***

CITY           SKY/WX    TMP DP  RH WIND       PRES   REMARKS
ESTEVAN        MOSUNNY   27  12  54 SW13      29.98F WCI  16
KINDERSLEY     PTSUNNY   34  23  64 W15       29.97S WCI  24
LLOYDMINSTER   PTSUNNY   32  19  59 W13G18    29.93S WCI  22
PRINCE ALBERT  MOSUNNY   27  10  50 W20G30    29.86R WCI  13
REGINA         MOSUNNY   27  19  74 W14       29.94F WCI  15



USA.gov is the U.S. government's official web portal to all federal, state and local government web resources and services.